Stations météo

réclame
Mon MeteoGroup
St-Etienne Boutheon, France (7475): Température de l'air & dewpoint: 21.01.2020 05:00:00 - 27.01.2020 05:00:00 (CET)St-Etienne Boutheon, France (7475): Température de l'air 5cm: 21.01.2020 05:00:00 - 27.01.2020 05:00:00 (CET)St-Etienne Boutheon, France (7475): Température de l'air -20cm & Température de l'air -100cm: 21.01.2020 05:00:00 - 27.01.2020 05:00:00 (CET)St-Etienne Boutheon, France (7475): Vitesse du vent & gusts: 21.01.2020 05:00:00 - 27.01.2020 05:00:00 (CET)St-Etienne Boutheon, France (7475): Direction du vent: 21.01.2020 05:00:00 - 27.01.2020 05:00:00 (CET)St-Etienne Boutheon, France (7475): reduced air pressure: 21.01.2020 05:00:00 - 27.01.2020 05:00:00 (CET)St-Etienne Boutheon, France (7475): visibility: 21.01.2020 05:00:00 - 27.01.2020 05:00:00 (CET)St-Etienne Boutheon, France (7475): Ensoleillement: 21.01.2020 05:00:00 - 27.01.2020 05:00:00 (CET)St-Etienne Boutheon, France (7475): Quantités de précipitations: 21.01.2020 05:00:00 - 27.01.2020 05:00:00 (CET)
Date & Time tt [°C] td [°C] tt 5cm [°C] tt -20cm [°C] tt -100cm [°C] ff [km/h] ff [knt] fx [km/h] fx [knt] dd ppp [hPa] vv [km] sd [min] rr [mm]
27.01.2020 05:00:00 3,1 0,8 - - - 15 8 18 10 S 1020,5 50 - 0,0
27.01.2020 04:00:00 2,9 0,8 0,1 5,7 7,4 9 5 18 10 SSE 1021,1 56 0 0,0
27.01.2020 03:00:00 3,3 1,5 1,0 5,9 7,4 11 6 17 9 S 1021,6 51 0 0,0
27.01.2020 02:00:00 3,5 1,5 0,5 6,1 7,4 11 6 18 10 S 1021,8 50 0 0,0
27.01.2020 01:00:00 3,6 2,1 -2,1 6,4 7,4 13 7 18 10 SSE 1021,9 50 0 0,0
27.01.2020 00:00:00 1,7 0,7 -1,5 6,5 7,3 8 4 10 6 SSE 1022,5 40 0 0,0
26.01.2020 23:00:00 3,9 3,6 -1,4 6,7 7,4 7 4 9 5 S 1021,8 1,3 0 0,0
26.01.2020 22:00:00 5,5 5,1 0,6 6,8 7,4 3 2 6 4 SSW 1021,9 3,8 0 0,0
26.01.2020 21:00:00 6,9 6,3 5,8 6,8 7,4 6 4 9 5 S 1021,3 11 0 0,0
26.01.2020 20:00:00 7,3 6,6 5,8 6,8 7,4 4 2 6 3 NE 1021,0 25 0 0,0
26.01.2020 19:00:00 7,5 6,8 6,4 6,8 7,4 0 0 11 6 N 1020,5 20 0 0,2
26.01.2020 18:00:00 8,1 6,4 7,0 6,7 7,4 3 2 25 14 NW 1020,1 15 0 0,6
26.01.2020 17:00:00 11,1 4,8 9,8 6,5 7,4 6 3 10 6 SSW 1018,8 43 0 0,0
26.01.2020 16:00:00 11,8 4,5 12,9 6,2 7,3 3 1 15 8 NNW 1018,3 60 22 0,0
26.01.2020 15:00:00 12,3 5,2 11,7 5,9 7,3 4 2 9 5 N 1018,2 48 9 0,0
26.01.2020 14:00:00 11,3 5,4 12,2 5,7 7,3 3 2 19 10 SSE 1018,7 60 21 0,0
26.01.2020 13:00:00 10,5 4,8 10,8 5,5 7,3 10 5 28 15 SW 1019,2 60 0 0,0
26.01.2020 12:00:00 9,5 5,1 8,1 5,3 7,3 11 6 23 12 SSW 1019,9 60 15 0,0
26.01.2020 11:00:00 7,9 5,4 7,0 5,3 7,4 8 5 15 8 S 1020,1 58 4 0,0
26.01.2020 10:00:00 6,7 5,8 5,2 5,2 7,3 6 3 11 6 S 1019,9 47 0 0,0
26.01.2020 09:00:00 5,2 5,1 3,1 5,2 7,3 6 3 9 5 SSE 1020,0 7 0 0,0
26.01.2020 08:00:00 3,8 3,5 2,5 5,2 7,3 4 2 7 4 S 1020,1 0,5 0 0,0
26.01.2020 07:00:00 5,2 4,9 4,6 5,2 7,3 5 3 7 4 NE 1019,6 4,2 0 0,4
26.01.2020 06:00:00 5,5 5,1 4,6 5,2 7,3 3 2 6 4 ESE 1019,6 7 0 1,6
26.01.2020 05:00:00 5,4 4,7 4,6 5,2 7,3 3 1 10 5 SW 1019,4 11 0 0,4
26.01.2020 04:00:00 5,6 4,6 4,6 5,2 7,3 3 2 8 4 SSE 1019,5 18 0 0,2
26.01.2020 03:00:00 6,0 4,0 4,8 5,2 7,3 3 1 10 6 E 1019,6 34 0 0,0
26.01.2020 02:00:00 7,0 3,8 4,6 5,3 7,3 5 3 14 8 SSW 1019,5 19 0 0,0
26.01.2020 01:00:00 6,3 3,6 4,6 5,4 7,3 7 4 17 9 SSE 1019,9 58 0 0,0
26.01.2020 00:00:00 7,6 4,0 4,3 5,4 7,3 8 4 13 7 SSW 1019,9 60 0 0,0
25.01.2020 23:00:00 5,7 3,9 0,6 5,5 7,3 9 5 15 8 S 1020,4 55 0 0,0
25.01.2020 22:00:00 5,3 3,3 1,4 5,7 7,3 3 2 6 3 SSE 1020,5 41 0 0,0
25.01.2020 21:00:00 7,1 3,2 1,5 5,8 7,3 6 3 14 7 SW 1020,2 57 0 0,0
25.01.2020 20:00:00 5,9 1,6 1,8 5,9 7,3 7 4 16 8 S 1020,2 60 0 0,0
25.01.2020 19:00:00 5,3 1,6 2,3 5,9 7,3 13 7 23 13 S 1020,1 60 0 0,0
25.01.2020 18:00:00 7,8 3,3 5,4 5,8 7,3 15 8 29 16 SSE 1019,3 49 13 0,0
25.01.2020 17:00:00 10,8 4,5 10,7 5,6 7,3 16 9 29 16 SSE 1018,7 35 48 0,0
25.01.2020 16:00:00 11,4 4,6 11,8 5,4 7,3 16 9 30 16 SSE 1019,1 37 21 0,0
25.01.2020 15:00:00 11,6 4,8 12,0 5,1 7,3 15 8 25 13 SSE 1019,4 37 0 0,0
25.01.2020 14:00:00 11,4 4,8 11,8 4,8 7,3 16 8 21 12 SSE 1020,1 29 0 0,0
25.01.2020 13:00:00 11,5 4,7 12,8 4,5 7,3 8 4 14 7 WSW 1020,7 38 14 0,0
25.01.2020 12:00:00 11,6 5,2 13,4 4,2 7,3 8 5 19 10 SE 1021,3 30 60 0,0
25.01.2020 11:00:00 10,0 4,4 7,0 4,1 7,3 8 4 16 9 SSE 1021,9 20 47 0,0
25.01.2020 10:00:00 6,0 3,0 4,6 4,1 7,3 6 3 16 9 SSE 1022,6 17 27 0,0
25.01.2020 09:00:00 4,5 2,0 3,0 4,1 7,3 8 4 18 10 SSW 1022,7 23 9 0,0
25.01.2020 08:00:00 3,9 2,1 1,9 4,1 7,3 6 4 11 6 SW 1022,7 15 0 0,0
25.01.2020 07:00:00 4,5 2,5 2,5 4,1 7,3 5 3 12 6 SSW 1022,2 20 0 0,0
25.01.2020 06:00:00 2,8 1,9 2,0 4,1 7,3 3 2 8 4 E 1022,4 10 0 0,0
25.01.2020 05:00:00 2,9 1,7 1,2 4,2 7,3 3 2 10 6 WNW 1022,6 8 0 0,0
25.01.2020 04:00:00 3,0 1,7 2,2 4,3 7,3 3 2 7 4 SSW 1022,8 10 0 0,0
25.01.2020 03:00:00 3,3 1,7 -1,4 4,4 7,3 3 2 18 10 SSE 1023,3 10 0 0,0
25.01.2020 02:00:00 1,0 0,0 -1,7 4,5 7,3 10 5 14 8 S 1024,0 14 0 0,0
25.01.2020 01:00:00 2,9 1,6 -3,4 4,7 7,4 4 2 10 5 S 1023,7 13 0 0,0
25.01.2020 00:00:00 1,3 0,7 -3,4 4,9 7,4 3 2 6 3 S 1023,9 4,7 0 0,0
24.01.2020 23:00:00 2,1 1,1 -1,3 5,0 7,4 4 2 11 6 SSE 1023,8 6 0 0,0
24.01.2020 22:00:00 3,9 1,9 -0,2 5,1 7,4 9 5 18 10 SSE 1023,5 8 0 0,0
24.01.2020 21:00:00 4,3 1,8 0,6 5,2 7,4 9 5 18 10 S 1023,7 7 0 0,0
24.01.2020 20:00:00 5,9 3,1 2,6 5,2 7,4 13 7 17 9 SSE 1023,4 8 0 0,0
24.01.2020 19:00:00 7,4 3,6 4,7 5,2 7,4 8 4 16 9 SE 1022,7 9 0 0,0
24.01.2020 18:00:00 8,0 4,0 6,4 5,0 7,4 11 6 19 10 SSE 1022,0 9 0 0,0
24.01.2020 17:00:00 10,0 5,0 9,5 4,7 7,4 10 6 20 11 S 1021,5 8 52 0,0
24.01.2020 16:00:00 12,0 5,2 12,4 4,3 7,4 13 7 18 10 S 1021,3 17 21 0,0
24.01.2020 15:00:00 13,8 5,2 14,7 3,9 7,4 4 2 10 5 WNW 1021,2 26 26 0,0
24.01.2020 14:00:00 12,9 4,1 15,1 3,4 7,4 4 2 12 7 S 1021,8 32 40 0,0
24.01.2020 13:00:00 12,4 4,8 15,7 3,1 7,4 4 2 11 6 NE 1022,5 16 60 0,0
24.01.2020 12:00:00 10,2 4,6 12,7 2,9 7,4 4 2 12 6 ENE 1023,6 11 60 0,0
24.01.2020 11:00:00 7,1 3,5 9,1 3,0 7,4 3 1 14 8 ENE 1024,7 9 60 0,0
24.01.2020 10:00:00 3,4 2,5 -1,4 3,0 7,4 3 2 9 5 SSW 1024,9 6 41 0,0
24.01.2020 09:00:00 -0,9 -1,5 -4,2 3,1 7,4 3 2 10 5 SE 1025,9 4,0 0 0,0
24.01.2020 08:00:00 -1,2 -2,0 -4,8 3,1 7,4 4 2 8 4 SSW 1026,0 3,3 0 0,0
24.01.2020 07:00:00 -1,6 -2,3 -4,4 3,2 7,4 3 1 7 4 SSE 1026,3 1,5 0 0,0
24.01.2020 06:00:00 0,1 -0,9 -1,3 3,2 7,5 5 3 12 7 NNW 1025,7 3,7 0 0,0
24.01.2020 05:00:00 2,0 0,7 -2,1 3,3 7,5 6 3 18 10 S 1025,2 6 0 0,0
24.01.2020 04:00:00 -0,3 -0,9 -2,4 3,4 7,5 2 1 12 7 N 1025,6 3,9 0 0,0
24.01.2020 03:00:00 -0,5 -1,1 -2,3 3,4 7,5 8 4 9 5 S 1025,8 3,2 0 0,0
24.01.2020 02:00:00 -0,2 -0,9 -1,3 3,5 7,5 3 2 14 8 NNW 1025,5 2,6 0 0,0
24.01.2020 01:00:00 0,3 -0,6 -1,9 3,6 7,5 6 3 10 5 SSW 1026,1 4,0 0 0,0
24.01.2020 00:00:00 -0,1 -1,0 -1,7 3,7 7,5 4 2 10 5 NNE 1026,5 2,7 0 0,0
23.01.2020 23:00:00 0,4 -1,0 -2,4 3,7 7,5 3 2 16 8 NNW 1026,5 3,1 0 0,0
23.01.2020 22:00:00 -0,4 -1,5 -2,7 3,8 7,5 3 2 13 7 SSE 1026,7 3,3 0 0,0
23.01.2020 21:00:00 -0,5 -1,6 -3,1 3,9 7,5 6 3 10 5 SE 1026,7 3,2 0 0,0
23.01.2020 20:00:00 1,1 -0,2 -1,4 4,0 7,5 4 2 16 9 WSW 1026,5 4,3 0 0,0
23.01.2020 19:00:00 1,9 -0,2 0,1 4,0 7,5 16 8 28 15 SSE 1026,4 4,0 0 0,0
23.01.2020 18:00:00 2,9 0,1 2,1 3,9 7,5 19 10 27 14 SSE 1026,1 4,0 5 0,0
23.01.2020 17:00:00 4,4 0,7 4,5 3,7 7,5 17 9 24 13 SSE 1025,2 5 0 0,0
23.01.2020 16:00:00 5,8 1,1 6,7 3,5 7,5 12 6 17 9 S 1024,7 6 0 0,0
23.01.2020 15:00:00 5,8 1,3 7,7 3,2 7,6 7 4 15 8 WNW 1025,0 7 0 0,0
23.01.2020 14:00:00 5,8 1,5 7,5 2,9 7,6 8 4 24 13 WNW 1025,3 7 19 0,0
23.01.2020 13:00:00 6,9 0,3 7,8 2,8 7,5 16 8 29 16 S 1025,6 11 9 0,0
23.01.2020 12:00:00 5,6 -0,3 4,0 2,8 7,6 10 6 21 11 S 1026,4 10 2 0,0
23.01.2020 11:00:00 1,6 -0,3 1,4 2,8 7,6 3 2 8 5 NW 1027,8 6 0 0,0
23.01.2020 10:00:00 0,1 -1,3 -0,5 2,8 7,6 0 0 9 5 N 1028,1 3,8 0 0,0
23.01.2020 09:00:00 -0,6 -1,9 -1,9 2,9 7,6 5 3 8 5 WNW 1028,4 5 0 0,0
23.01.2020 08:00:00 0,8 -2,4 -1,8 2,9 7,6 4 2 15 8 WNW 1028,2 8 0 0,0
23.01.2020 07:00:00 -0,9 -1,9 -1,9 3,0 7,6 6 3 11 6 S 1028,6 7 0 0,0
23.01.2020 06:00:00 -1,6 -2,3 -3,7 3,0 7,6 5 3 7 4 E 1029,2 5 0 0,0
23.01.2020 05:00:00 -2,0 -3,0 -3,9 3,0 7,6 4 2 8 4 NW 1029,9 6 0 0,0
23.01.2020 04:00:00 -1,0 -2,7 -3,1 3,1 7,6 0 0 9 5 N 1030,2 7 0 0,0
23.01.2020 03:00:00 -1,1 -2,4 -2,9 3,2 7,6 4 2 8 5 WNW 1030,4 6 0 0,0
23.01.2020 02:00:00 -1,2 -2,0 -2,9 3,3 7,7 2 1 6 3 E 1030,7 6 0 0,0
23.01.2020 01:00:00 -1,6 -2,4 -3,5 3,3 7,7 3 2 8 4 E 1031,6 3,7 0 0,0
23.01.2020 00:00:00 -1,4 -2,2 -3,7 3,4 7,7 3 2 6 3 NNE 1032,0 3,5 0 0,0
22.01.2020 23:00:00 -0,7 -1,4 -3,6 3,4 7,7 0 0 11 6 N 1031,8 3,8 0 0,0
22.01.2020 22:00:00 -0,8 -1,8 -4,6 3,5 7,7 9 5 11 6 S 1032,2 4,5 0 0,0
22.01.2020 21:00:00 -1,8 -2,9 -4,2 3,6 7,7 6 3 9 5 SSE 1032,6 3,3 0 0,0
22.01.2020 20:00:00 0,3 -0,8 -2,4 3,6 7,7 3 2 6 3 ESE 1032,4 4,9 0 0,0
22.01.2020 19:00:00 1,5 -0,1 -2,1 3,6 7,7 5 3 8 4 W 1032,0 6 0 0,0
22.01.2020 18:00:00 2,3 -0,1 -1,4 3,6 7,7 3 1 6 4 SSE 1031,8 7 0 0,0
22.01.2020 17:00:00 3,4 0,4 2,1 3,4 7,7 2 1 8 4 ENE 1031,4 7 0 0,0
22.01.2020 16:00:00 4,4 0,5 4,9 3,2 7,7 5 3 11 6 WNW 1031,5 8 7 0,0
22.01.2020 15:00:00 4,9 0,7 6,2 2,9 7,7 4 2 8 5 NW 1031,5 8 4 0,0
22.01.2020 14:00:00 4,9 0,7 6,7 2,8 7,7 7 4 13 7 W 1032,3 7 20 0,0
22.01.2020 13:00:00 3,5 0,7 3,9 2,8 7,8 7 4 17 9 N 1033,3 7 0 0,0
22.01.2020 12:00:00 4,4 -1,0 4,0 2,8 7,8 9 5 13 7 S 1033,8 14 0 0,0
22.01.2020 11:00:00 3,2 -1,0 1,4 2,8 7,7 8 4 13 7 SE 1034,3 14 16 0,0
22.01.2020 10:00:00 -0,8 -1,6 -1,8 2,9 7,8 3 1 6 3 ENE 1034,7 6 25 0,0
22.01.2020 09:00:00 -3,4 -3,9 -6,2 3,0 7,8 4 2 6 3 NE 1035,4 4,3 12 0,0
22.01.2020 08:00:00 -3,9 -4,4 -7,7 3,0 7,8 0 0 5 3 N 1035,4 4,1 0 0,0
22.01.2020 07:00:00 -3,7 -4,5 -6,6 3,1 7,8 4 2 8 4 WNW 1035,3 5 0 0,0
22.01.2020 06:00:00 -3,1 -3,6 -5,6 3,1 7,8 4 2 9 5 N 1035,3 3,4 0 0,0
22.01.2020 05:00:00 -1,7 -2,4 -3,3 3,2 7,8 3 2 6 3 WSW 1035,6 4,7 0 0,0
22.01.2020 04:00:00 -2,1 -2,9 -3,5 3,3 7,8 3 1 5 3 N 1036,2 6 0 0,0
22.01.2020 03:00:00 -2,6 -3,4 -4,8 3,4 7,8 0 0 6 4 N 1036,7 6 0 0,0
22.01.2020 02:00:00 -3,0 -4,0 -4,9 3,4 7,8 2 1 6 4 S 1036,7 4,4 0 0,0
22.01.2020 01:00:00 -2,1 -2,8 -4,7 3,5 7,8 4 2 6 3 NE 1036,8 5 0 0,0
22.01.2020 00:00:00 -1,8 -2,6 -4,9 3,6 7,9 4 2 6 3 S 1037,4 7 0 0,0
21.01.2020 23:00:00 -2,3 -3,1 -4,2 3,7 7,9 2 1 9 5 S 1037,8 7 0 0,0
21.01.2020 22:00:00 -1,9 -3,0 -4,1 3,8 7,9 2 1 7 4 SSE 1038,2 5 0 0,0
21.01.2020 21:00:00 -1,5 -2,8 -4,4 3,9 7,9 3 2 9 5 SSW 1038,1 7 0 0,0
21.01.2020 20:00:00 -1,5 -2,6 -4,3 4,0 7,9 8 4 9 5 S 1038,4 8 0 0,0
21.01.2020 19:00:00 0,1 -2,0 -2,6 4,0 7,9 5 3 7 4 ENE 1037,7 6 0 0,0
21.01.2020 18:00:00 1,9 -1,5 -1,0 3,9 7,9 2 1 7 4 ENE 1037,3 11 0 0,0
21.01.2020 17:00:00 3,1 -1,5 2,5 3,8 7,9 3 2 9 5 NW 1037,1 13 0 0,0
21.01.2020 16:00:00 4,1 -2,1 4,9 3,6 7,9 3 1 12 6 N 1037,2 17 0 0,0
21.01.2020 15:00:00 4,1 -1,9 5,7 3,4 7,9 4 2 11 6 N 1037,7 17 1 0,0
21.01.2020 14:00:00 4,6 -1,6 6,9 3,1 7,9 4 2 8 4 E 1038,4 16 11 0,0
21.01.2020 13:00:00 4,6 -2,1 6,8 3,0 7,9 3 2 9 5 E 1039,5 18 45 0,0
21.01.2020 12:00:00 2,2 -1,1 3,4 3,0 8,0 4 2 8 4 SSE 1040,6 11 9 0,0
21.01.2020 11:00:00 1,2 -1,5 0,9 3,0 7,9 3 2 10 5 WSW 1041,0 10 15 0,0
21.01.2020 10:00:00 -0,6 -2,0 -0,8 3,0 8,0 0 0 7 4 N 1041,4 7 0 0,0
21.01.2020 09:00:00 -1,0 -2,3 -1,4 3,0 8,0 4 2 7 4 W 1040,8 8 0 0,0
21.01.2020 08:00:00 -1,2 -2,3 -1,7 3,1 8,0 4 2 8 4 W 1040,2 7 0 0,0
21.01.2020 07:00:00 -1,0 -2,4 -1,8 3,1 8,0 4 2 6 4 WNW 1039,9 11 0 0,0
21.01.2020 06:00:00 -1,3 -2,4 -2,1 3,1 8,0 4 2 5 3 NE 1039,5 11 0 0,0
21.01.2020 05:00:00 -1,7 -2,7 -4,6 3,2 8,0 2 1 6 3 S 1040,1 12 0 0,0

tt = Température de l'air
td = dewpoint
tt 5cm = Température de l'air 5cm
tt -20cm = Température de l'air -20cm
tt -100cm = Température de l'air -100cm
ff = Vitesse du vent
fx = gusts
dd = Direction du vent
ppp = reduced air pressure
vv = visibility
sd = Ensoleillement
rr = Quantités de précipitations

stations d'obs. à proximité